Location: *
(55.5817°S, 142.4781°W)
Time: 07:23:59
(UTC+00:00)

SJ-6B - Pass Details

Date: 29 April 2025
Orbit: 470 x 517 km, 97.4° (Epoch: 23 May)

Event Time Altitude Azimuth Distance (km) Brightness Sun altitude
Rises 15:58:49 0° 29° (NNE) 2,646 7.0 -7.7°
Reaches altitude 10° 16:00:57 10° 33° (NNE) 1,760 6.2 -7.4°
Maximum altitude 16:04:39 53° 110° (ESE) 649 3.6 -6.9°
Drops below altitude 10° 16:08:21 10° 187° (S) 1,759 5.2 -6.4°
Sets 16:10:29 0° 191° (S) 2,645 6.0 -6.1°
